Starlink 32391

operational
NORAD ID: 61855 Int'l Des: 2024-202 Owner: SPXS Country: US Constellation: starlink
LEOCIRCULAR

Über Starlink 32391

Beschreibung wird geladen...

Live-Position

3D-Globus wird geladen...

Nächste Überflüge

Höhenverlauf

Altitude vs Time

uPlot chart will show altitude changes over time

Zweizeiliger Elementsatz

1 61855U 24202L 25259.06859737 .00002291 00000-0 92709-4 0 9998
2 61855 43.0063 143.9799 0001259 265.3358 94.7350 15.27592097 48629
Epoch: 16. Sept. 2025 • Age: 9 hours

Aktueller Status

Höhe 495.1 km
Geschwindigkeit 7.62 km/s
Subsatellitenpunkt -42.28°S, 117.32°W
Startdatum 7. Nov. 2024
Alter 0.8 years
Typ internet

Technische Details

Klassifizierung Payload
Masse 730.00 kg
Trockenmasse 700.00 kg
Gesamtmasse 730.00 kg
Länge 0.30 m
Durchmesser 4.10 m
Spannweite 29.00 m
Form Box + pan
Hersteller SPXS
Bus-Typ Starlink V2M
Phasenstatus In Orbit
Besitzer/Staat SPXS/US

Große Konstellationen

Loading constellations...